Αρχική σελίδα
METAR-TAF:

METAR-TAF

Αεροδρόμια :

Hoonah, Αλάσκα, Ηνωμένες Πολιτείες Αμερικής

γεωγραφικό πλάτος: 58-07N, γεωγραφικό μήκος: 135-27W, υψόμετρο: 0 μ

Παρών καιρός

Η αναφορά έγινε 29 λεπτά πριν, στις 12:56 UTC
Άνεμος 9 kt από Α
Θερμοκρασία 4°C
Υγρασία 93%
Πίεση 1008 hPa
Ορατότητα: 16.1 χλμ
Νεφοσκεπής σε ύψος 3000 πόδια
Ασθενής βροχή

METAR: PAOH 101256Z AUTO 08009KT 10SM -RA OVC030 04/03 A2977 RMK AO2 RAB45 SLP080 P0000 T00440028

Χρόνος: 04:25 (13:25 UTC)


TAF: λείπει

Μετεωρολογικές αναφορές και προγνώσεις για περισσότερα από 4000 αεροδρόμια (δελτία METAR και TAF).

Οι διαθέσιμοι σταθμοί απεικονίζονται στο χάρτη με κίτρινες και κόκκινες κουκκίδες.

Μετακινήστε το ποντίκι πάνω από τις κουκκίδες για να δείτε το όνομα του σταθμού.

Στη συνέχεια, κάντε κλικ για να δείτε τις μετεωρολογικές αναφορές και τις προγνώσεις καιρού.

Για να αλλάξετε το χάρτη: κάντε κλικ στα πράσινα κουμπιά με τον μαύρο σταυρό για να ζουμάρετε, στο πράσινο κουμπί με την παύλα για να αφαιρέσετε το ζουμ ή στα πράσινα βέλη για να αντιπαραβάλλετε χάρτες.


METAR-TAF: